Find Starlink 31532

NORAD ID: 59349 Int'l Des: 2024-060 Owner: SPXS Country: US Constellation: starlink operational
LEOCIRCULAR

当前视图

正在加载3D地球...

About Starlink 31532

Starlink 31532 (NORAD 59349) is a starlink constellation satellite (v2 mini) launched Mar 31, 2024 by SPXS of US. It operates in LEO, CIRCULAR orbit with a mass of 730.00 kg.

即将过境

Passes for default location (London). Set your location on the main map for personalized predictions.

高度历史

Loading altitude history...

两行轨道根数

1 59349U 24060B 26266.03144883 .00001312 00000-0 57179-4 0 9995
2 59349 43.0015 225.3815 0001190 264.0916 95.9800 15.27579923140297
Epoch: Sep 23, 2026 • Age: 15 hours

当前状态

高度 483.5 km
远地点 / 近地点 N/A
速度 7.63 km/s
星下点 25.61°N, 136.31°E
发射日期 Mar 31, 2024
运行时间 2.4 years
类型 internet

技术详情

分类 Payload
质量 730.00 kg
干质量 700.00 kg
长度 0.30 m
跨度 29.00 m
形状 ? Box + pan
制造商 SPXS
平台类型 Starlink V2M
阶段状态 In Orbit
所有者/国家 SPXS/US

Most Searched